Miscellaneous Local Product
Issued by NWS North Platte, NE

Home | Current Version | Previous Version | Graphics & Text | Print | Product List | Glossary On
Versions: 1 2 3 4 5 6 7 8 9 10 11 12 13 14 15 16 17 18 19 20 21 22 23 24 25 26 27 28 29 30 31 32 33 34 35 36 37 38 39 40 41 42 43 44 45 46 47 48 49 50
105
AXUS43 KLBF 111710
MISLBF


WESTERN AND NORTH CENTRAL NEBRASKA HOURLY WEATHER ROUNDUP
NATIONAL WEATHER SERVICE NORTH PLATTE NE
1100 AM CST THU FEB 11 2016

NOTE: "FAIR" INDICATES FEW OR NO CLOUDS BELOW 12,000 FEET WITH NO
SIGNIFICANT WEATHER AND/OR OBSTRUCTIONS TO VISIBILITY.

NOTE: STATIONS NOT REPORTING VARIABLES SUCH AS SKY/WEATHER OR
PRESSURE ARE PROVIDED BY THE NEBRASKA DEPARTMENT OF
ROADS...RAWS...AND APRS NETWORKS...AND ARE NOT UNDER
NATIONAL WEATHER SERVICE QUALITY CONTROL.

...OBSERVATIONS IN AND NEAR THE EASTERN PANHANDLE OF NEBRASKA...

CITY           SKY/WX    TMP DP  RH WIND       PRES   REMARKS
PINE RIDGE     CLOUDY    44  27  51 W9        30.05R
CHADRON        CLOUDY    45  30  55 SW8       30.06R
ALLIANCE       MOSUNNY   39  30  70 W13       30.06R WCI  31
SIDNEY         CLOUDY    47  29  49 W10       30.10R
BIG SPRINGS      N/A     40  31  70 W14         N/A  WCI  32
$$

...OBSERVATIONS IN NORTH CENTRAL NEBRASKA...

CITY           SKY/WX    TMP DP  RH WIND       PRES   REMARKS
VALENTINE      CLOUDY    32  30  92 S10       30.05F WCI  24
THEDFORD       MOSUNNY   34  31  88 S12       30.05F WCI  26
AINSWORTH      CLOUDY    30  30  98 S10       30.08R FOG     WCI  21
O`NEILL        CLOUDY    26  25  96 SE12      30.14F FOG     WCI  15
ORD            CLOUDY    27  25  92 S9        30.16S FOG     WCI  18
BROKEN BOW     CLOUDY    30  28  92 S13       30.13S WCI  20
BUTTE            N/A     23  22  94 SE15        N/A  WCI  10
CHAMBERS         N/A     27  25  91 S7G15       N/A  WCI  20
EWING            N/A     23  21  93 S7          N/A  WCI  15
$$

...OBSERVATIONS IN SOUTHWEST NEBRASKA AND FAR NORTHEAST COLORADO...

CITY           SKY/WX    TMP DP  RH WIND       PRES   REMARKS
HOLYOKE        FAIR      45  32  61 W10       30.09F
IMPERIAL       MOSUNNY   41  29  62 W6        30.09F
OGALLALA       CLOUDY    38  29  71 CALM      30.07S
NORTH PLATTE   PTSUNNY   29  26  89 S12       30.10F WCI  19
MCCOOK         CLOUDY    29  29 100 SE9       30.15F FOG     WCI  20
LEXINGTON      CLOUDY    30  28  92 S14       30.15F FOG     WCI  19
PAXTON           N/A     37  34  89 SW3         N/A
STAPLETON        N/A     32  30  92 CALM        N/A
GOTHENBURG       N/A     30  29  94 S6          N/A  WCI  24
CALLAWAY         N/A     29  28  96 S13         N/A  WCI  19
$$

...OBSERVATIONS IN CENTRAL LINCOLN COUNTY AREA...

CITY           SKY/WX    TMP DP  RH WIND       PRES   REMARKS
N.P. AIRPORT   PTSUNNY   29  26  89 S12       30.10F WCI  19
N.P. DOWNTOWN    N/A     32  29  87 S6          N/A  WCI  26
N.P. SOUTHEAST   N/A     31  28  88 S5          N/A  WCI  26
N.P. HILLCREST   N/A     30  29  96 S7          N/A  WCI  23
$$

...SOME OBSERVATIONS FROM AROUND THE REGION...

CITY           SKY/WX    TMP DP  RH WIND       PRES   REMARKS
DENVER         CLOUDY    51  18  27 SW12      30.13F
LARAMIE        CLOUDY    43  18  36 S8        30.22R
CHEYENNE       CLOUDY    49  17  28 W24G36    30.14R
SCOTTSBLUFF    SUNNY     50  27  40 NW15      30.10R
RAPID CITY     SUNNY     40  33  76 VRB3      30.01S
BISMARCK       LGT SNOW  23  16  74 CALM      30.14R
PIERRE         CLOUDY    26  23  88 SE9       30.10S WCI  17
WINNER         PTSUNNY   32  24  72 S12       30.09S WCI  23
SIOUX FALLS    CLOUDY    16   7  67 S10       30.23F WCI   4
OMAHA          CLOUDY    18   6  59 SE6       30.32S WCI  10
GRAND ISLAND   CLOUDY    25  22  88 S8        30.23R FOG     WCI  16
KANSAS CITY    MOSUNNY   28  20  71 CALM      30.29F
WICHITA        MOSUNNY   37  22  54 NE9       30.24F WCI  30
OKLAHOMA CITY  MOSUNNY   51  31  46 N9        30.21R
LIBERAL        SUNNY     45  30  57 CALM      30.23S
HAYS           CLOUDY    28  18  64 CALM      30.24S
GOODLAND       CLOUDY    50  25  37 SW13      30.13F
$$




USA.gov is the U.S. government's official web portal to all federal, state and local government web resources and services.